Location: Il Ritiro
(43.4167°N, 13.1333°E)
Time: 07:37:53
(UTC+00:00)

Cosmos 2333 - Pass Details

Date: 05 July 2020
Orbit: 828 x 867 km, 70.9° (Epoch: 05 August)

Event Time Altitude Azimuth Distance (km) Brightness Sun altitude
Rises 20:28:30 0° 202° (SSW) 3,367 7.0 -14.0°
Reaches altitude 10° 20:30:55 10° 203° (SSW) 2,442 6.3 -14.2°
Maximum altitude 20:36:32 89° 116° (ESE) 849 4.2 -14.9°
Drops below altitude 10° 20:42:15 10° 25° (NNE) 2,484 7.0 -15.5°
Sets 20:44:43 0° 26° (NNE) 3,430 7.8 -15.7°
